Location: Bastelaar
(51.0950°N, 3.8602°E)
Time: 02:41:36
(UTC+00:00)

ARIANE 6 FM1 Upper Stage - Pass Details

Date: 24 January 2026
Orbit: 522 x 609 km, 62.0° (Epoch: 13 February)

Event Time Altitude Azimuth Distance (km) Brightness Sun altitude
Rises 17:32:50 0° 190° (S) 2,706 6.5 -11.1°
Reaches altitude 10° 17:35:21 10° 177° (S) 1,802 5.4 -11.5°
Maximum altitude 17:38:37 24° 123° (ESE) 1,137 3.9 -12.0°
Enters shadow 17:40:18 18° 87° (E) 1,337 4.0 -12.2°
